RSC766 GCTS-GCLA

Flight info

Callsign RSC766
Flight time 0h 24m
Altitude 13000
Route MOROD
Aircraft AT76/M-SDFGRY/LB1

Departure

Time 2026-04-28 20:07
Airport Tenerife Sur Airport (GCTS)

Arrival

Time 2026-04-28 20:32
Airport La Palma Airport (GCLA)
Time Latitude Longitude Altitude Speed Heading
2026-04-28 19:36 28.04529 -16.57762 219 ft 0 kts 338°
2026-04-28 19:59 28.04533 -16.57764 219 ft 3 kts 338°
2026-04-28 20:00 28.04561 -16.57777 220 ft 6 kts 336°
2026-04-28 20:00 28.04573 -16.57811 221 ft 2 kts 248°
2026-04-28 20:00 28.04552 -16.57882 221 ft 20 kts 254°
2026-04-28 20:00 28.04456 -16.57911 219 ft 15 kts 159°
2026-04-28 20:01 28.04423 -16.57833 219 ft 12 kts 68°
2026-04-28 20:01 28.04453 -16.57746 219 ft 12 kts 68°
2026-04-28 20:01 28.04483 -16.57659 219 ft 12 kts 69°
2026-04-28 20:01 28.04513 -16.57573 219 ft 12 kts 69°
2026-04-28 20:02 28.04544 -16.57487 219 ft 12 kts 67°
2026-04-28 20:02 28.04583 -16.57384 219 ft 22 kts 68°
2026-04-28 20:02 28.04660 -16.57173 219 ft 31 kts 62°
2026-04-28 20:02 28.04746 -16.56946 217 ft 33 kts 68°
2026-04-28 20:03 28.04836 -16.56688 215 ft 36 kts 69°
2026-04-28 20:03 28.04926 -16.56432 220 ft 34 kts 69°
2026-04-28 20:03 28.05010 -16.56189 215 ft 31 kts 68°
2026-04-28 20:03 28.05083 -16.55979 219 ft 23 kts 76°
2026-04-28 20:04 28.05046 -16.55856 215 ft 10 kts 155°
2026-04-28 20:04 28.05039 -16.55853 215 ft 0 kts 159°
2026-04-28 20:05 28.05034 -16.55851 215 ft 2 kts 159°
2026-04-28 20:06 28.05016 -16.55844 218 ft 4 kts 161°
2026-04-28 20:06 28.04971 -16.55843 216 ft 8 kts 194°
2026-04-28 20:06 28.04922 -16.55891 213 ft 11 kts 246°
2026-04-28 20:06 28.04857 -16.56083 208 ft 54 kts 249°
2026-04-28 20:07 28.04641 -16.56692 201 ft 110 kts 249°
2026-04-28 20:07 28.04446 -16.57300 248 ft 132 kts 248°
2026-04-28 20:07 28.03939 -16.58569 848 ft 136 kts 241°
2026-04-28 20:07 28.03492 -16.59533 1206 ft 143 kts 242°
2026-04-28 20:08 28.03025 -16.60616 1313 ft 161 kts 245°
2026-04-28 20:08 28.02558 -16.61860 1407 ft 179 kts 247°
2026-04-28 20:08 28.02084 -16.63143 1723 ft 179 kts 249°
2026-04-28 20:08 28.01630 -16.64450 2053 ft 180 kts 250°
2026-04-28 20:09 28.01205 -16.65785 2429 ft 180 kts 251°
2026-04-28 20:09 28.00783 -16.67119 2811 ft 180 kts 250°
2026-04-28 20:09 28.00354 -16.68454 3187 ft 180 kts 250°
2026-04-28 20:09 27.99980 -16.69795 3493 ft 178 kts 268°
2026-04-28 20:10 28.00406 -16.71075 3794 ft 180 kts 316°
2026-04-28 20:10 28.01396 -16.71947 4142 ft 181 kts 323°
2026-04-28 20:10 28.02382 -16.72833 4495 ft 182 kts 321°
2026-04-28 20:10 28.03337 -16.73778 4838 ft 184 kts 317°
2026-04-28 20:11 28.04287 -16.74820 4944 ft 197 kts 315°
2026-04-28 20:11 28.05259 -16.75995 4998 ft 211 kts 312°
2026-04-28 20:11 28.06249 -16.77287 5030 ft 223 kts 310°
2026-04-28 20:11 28.07196 -16.78599 5533 ft 208 kts 309°
2026-04-28 20:12 28.08075 -16.79837 6060 ft 195 kts 308°
2026-04-28 20:12 28.08894 -16.81002 6553 ft 185 kts 308°
2026-04-28 20:12 28.09685 -16.82144 6907 ft 183 kts 308°
2026-04-28 20:12 28.10201 -16.82898 7104 ft 183 kts 308°
2026-04-28 20:13 28.11244 -16.84432 7480 ft 184 kts 308°
2026-04-28 20:13 28.12033 -16.85584 7727 ft 187 kts 308°
2026-04-28 20:13 28.12846 -16.86762 7894 ft 193 kts 308°
2026-04-28 20:13 28.13771 -16.87914 7970 ft 203 kts 315°
2026-04-28 20:14 28.14466 -16.88654 7998 ft 210 kts 317°
2026-04-28 20:14 28.15589 -16.89783 8025 ft 221 kts 318°
2026-04-28 20:14 28.16764 -16.90956 8036 ft 229 kts 318°
2026-04-28 20:14 28.17970 -16.92172 8042 ft 235 kts 317°
2026-04-28 20:15 28.19192 -16.93439 8044 ft 240 kts 317°
2026-04-28 20:15 28.20425 -16.94728 8043 ft 243 kts 317°
2026-04-28 20:15 28.21673 -16.96038 8043 ft 246 kts 317°
2026-04-28 20:15 28.22934 -16.97359 8044 ft 248 kts 317°
2026-04-28 20:16 28.24205 -16.98690 8042 ft 250 kts 317°
2026-04-28 20:16 28.25481 -17.00032 8044 ft 251 kts 317°
2026-04-28 20:16 28.26764 -17.01378 8044 ft 252 kts 317°
2026-04-28 20:16 28.28052 -17.02727 8043 ft 252 kts 317°
2026-04-28 20:17 28.29339 -17.04081 8046 ft 253 kts 317°
2026-04-28 20:17 28.30633 -17.05439 8039 ft 253 kts 316°
2026-04-28 20:17 28.31907 -17.06781 8038 ft 253 kts 316°
2026-04-28 20:17 28.33220 -17.08160 8036 ft 253 kts 316°
2026-04-28 20:18 28.34511 -17.09519 8034 ft 253 kts 316°
2026-04-28 20:18 28.35782 -17.10859 8034 ft 253 kts 317°
2026-04-28 20:18 28.37073 -17.12214 8036 ft 253 kts 316°
2026-04-28 20:18 28.38363 -17.13576 8037 ft 253 kts 316°
2026-04-28 20:19 28.39660 -17.14940 8016 ft 255 kts 316°
2026-04-28 20:19 28.40962 -17.16307 7995 ft 255 kts 316°
2026-04-28 20:19 28.42261 -17.17684 7943 ft 257 kts 316°
2026-04-28 20:19 28.43595 -17.19085 7704 ft 265 kts 316°
2026-04-28 20:20 28.44826 -17.20648 7453 ft 268 kts 298°
2026-04-28 20:20 28.45297 -17.22691 7253 ft 269 kts 275°
2026-04-28 20:20 28.45267 -17.24783 7098 ft 261 kts 265°
2026-04-28 20:20 28.45046 -17.26813 6939 ft 256 kts 263°
2026-04-28 20:21 28.44796 -17.28798 6774 ft 252 kts 262°
2026-04-28 20:21 28.44561 -17.30763 6542 ft 252 kts 263°
2026-04-28 20:21 28.44366 -17.32766 6170 ft 257 kts 264°
2026-04-28 20:21 28.44181 -17.34808 5789 ft 261 kts 264°
2026-04-28 20:22 28.43993 -17.36855 5479 ft 261 kts 264°
2026-04-28 20:22 28.43803 -17.38910 5177 ft 261 kts 264°
2026-04-28 20:22 28.43621 -17.40924 4927 ft 258 kts 264°
2026-04-28 20:22 28.43435 -17.42935 4728 ft 254 kts 264°
2026-04-28 20:23 28.43246 -17.44919 4564 ft 250 kts 264°
2026-04-28 20:23 28.43116 -17.46867 4433 ft 245 kts 269°
2026-04-28 20:23 28.43129 -17.48793 4307 ft 242 kts 271°
2026-04-28 20:23 28.43160 -17.50691 4182 ft 240 kts 271°
2026-04-28 20:24 28.43178 -17.52582 4056 ft 238 kts 270°
2026-04-28 20:24 28.43164 -17.54458 3930 ft 237 kts 270°
2026-04-28 20:24 28.43145 -17.56320 3800 ft 236 kts 270°
2026-04-28 20:24 28.43122 -17.58178 3674 ft 235 kts 270°
2026-04-28 20:25 28.43095 -17.60033 3552 ft 234 kts 270°
2026-04-28 20:25 28.43057 -17.61879 3435 ft 234 kts 270°
2026-04-28 20:25 28.43018 -17.63717 3311 ft 233 kts 270°
2026-04-28 20:25 28.42985 -17.65564 3182 ft 233 kts 270°
2026-04-28 20:26 28.42950 -17.67405 3055 ft 233 kts 270°
2026-04-28 20:26 28.42921 -17.69199 2914 ft 227 kts 270°
2026-04-28 20:26 28.42900 -17.70972 2825 ft 221 kts 270°
2026-04-28 20:26 28.42935 -17.72686 2755 ft 212 kts 283°
2026-04-28 20:27 28.43677 -17.74050 2674 ft 204 kts 324°
2026-04-28 20:27 28.44937 -17.74733 2595 ft 200 kts 341°
2026-04-28 20:27 28.46271 -17.75131 2518 ft 196 kts 349°
2026-04-28 20:27 28.47596 -17.75322 2449 ft 188 kts 356°
2026-04-28 20:28 28.48841 -17.75378 2429 ft 166 kts 359°
2026-04-28 20:28 28.49925 -17.75393 2397 ft 147 kts 359°
2026-04-28 20:28 28.50925 -17.75403 2167 ft 140 kts
2026-04-28 20:28 28.51866 -17.75405 1986 ft 129 kts
2026-04-28 20:29 28.52697 -17.75414 1828 ft 113 kts 360°
2026-04-28 20:29 28.53488 -17.75428 1680 ft 117 kts 359°
2026-04-28 20:29 28.54328 -17.75463 1541 ft 124 kts 357°
2026-04-28 20:29 28.55201 -17.75453 1390 ft 124 kts
2026-04-28 20:30 28.56061 -17.75426 1199 ft 123 kts
2026-04-28 20:30 28.56904 -17.75424 1035 ft 119 kts 359°
2026-04-28 20:30 28.57724 -17.75449 879 ft 116 kts 357°
2026-04-28 20:30 28.58521 -17.75476 734 ft 114 kts 359°
2026-04-28 20:31 28.59318 -17.75494 597 ft 115 kts 358°
2026-04-28 20:31 28.60110 -17.75514 486 ft 113 kts 359°
2026-04-28 20:31 28.60893 -17.75533 343 ft 113 kts 357°
2026-04-28 20:31 28.61674 -17.75536 152 ft 110 kts 359°
2026-04-28 20:32 28.62348 -17.75549 110 ft 68 kts 358°
2026-04-28 20:32 28.62618 -17.75545 104 ft 12 kts 31°
2026-04-28 20:32 28.62609 -17.75482 106 ft 9 kts 136°
2026-04-28 20:32 28.62581 -17.75458 106 ft 0 kts 153°
2026-04-28 20:34 28.62568 -17.75453 107 ft 4 kts 161°
2026-04-28 20:34 28.62528 -17.75446 107 ft 7 kts 181°
2026-04-28 20:34 28.62474 -17.75447 107 ft 9 kts 180°
2026-04-28 20:35 28.62412 -17.75448 109 ft 9 kts 180°
2026-04-28 20:35 28.62350 -17.75445 110 ft 9 kts 177°
2026-04-28 20:35 28.62290 -17.75430 109 ft 8 kts 120°
2026-04-28 20:35 28.62292 -17.75377 110 ft 7 kts 90°
2026-04-28 20:36 28.62292 -17.75362 110 ft 0 kts 89°